sat.trackr.live / text

‹ back to catalog

STARLINK-32386

NORAD 61213 · 2024-171P

PAYLOAD ACTIVE UNKNOWN

§ Identity

Operator
Country
US
Launch date
2024-09-20
Launch site
AFWTR
Launch vehicle
Mass (kg)
RCS (m²)

Purposes: comms

External: N2YO · Heavens-Above · Gunter

§ Orbital elements

Epoch: 2026-09-21T20:52:22.418688Z

Period
93.85 min
Inclination
53.1609°
Eccentricity
0.0002064
Mean motion
15.34413681 rev/d
Perigee alt
461.3 km
Apogee alt
464.1 km
Semi-major
6,840.8 km
B*
-2.0447e-4
RAAN
127.0149°
Arg perigee
73.0838°
Mean anomaly
287.0391°
Rev number
11,246

§ Raw data

STARLINK-323861 61213U 24171P   26264.86970392 -.00007282  00000+0 -20447-3 0  99922 61213  53.1609 127.0149 0002064  73.0838 287.0391 15.34413681112464

JSON: /api/v1/satellites/61213 · /tle

For live sub-satellite position, see the globe view (requires WebGL).

§ Visibility from observer

Set your observer location to see the next 7 days of passes ≥ 10°. The values pass through the URL so the page stays shareable.

No JS? Fill the form by hand. The geolocation button needs JavaScript.